VE2JOS-13 Weather Reports


Display with metric or nautical units.
time (UTC)temp
F
wind
direction
speed
MPH
gust
MPH
rain 1hr
in
rain 24hr
in
rain mn
in
humidity
%
barometer
mb
20260510162522 64 270 3.0 3.0 0.00 0.00 0.00 4
20260510160628 64 257 2.0 4.0 0.00 0.00 0.00 4
20260510154653 63 40 4.0 4.0 0.00 0.00 0.00 4
20260510153006 63 227 2.0 2.0 0.00 0.00 0.00 4
20260510151246 63 225 4.0 7.0 0.00 0.00 0.00 4
20260510145403 64 335 1.0 2.0 0.00 0.00 0.00 5
20260510143447 62 280 1.0 2.0 0.00 0.00 0.00 5
20260510141826 62 274 2.0 2.0 0.00 0.00 0.00 5
20260510140133 62 285 3.0 7.0 0.00 0.00 0.00 5
20260510134247 62 0 0.0 1.0 0.00 0.00 0.00 6
20260510130813 60 257 3.0 2.0 0.00 0.00 0.00 6
20260510123237 57 225 0.0 2.0 0.00 0.00 0.00 7
20260510121633 56 257 1.0 1.0 0.00 0.00 0.00 7
20260510115958 55 265 0.0 1.0 0.00 0.00 0.00 7
20260510114226 55 0 0.0 0.0 0.00 0.00 0.00 8
20260510112433 55 266 0.0 0.0 0.00 0.00 0.00 8
20260510110833 53 0 0.0 0.0 0.00 0.00 0.00 8
20260510105013 53 0 0.0 0.0 0.00 0.00 0.00 9
20260510103258 53 252 5.0 9.0 0.00 0.00 0.00 9
20260510101658 53 253 0.0 1.0 0.00 0.00 0.00 9
20260510100017 52 256 0.0 0.0 0.00 0.00 0.00 9
20260510094413 53 243 1.0 1.0 0.00 0.00 0.00 9
20260510092538 53 260 2.0 3.0 0.00 0.00 0.00 9
20260510090847 53 258 1.0 2.0 0.00 0.00 0.00 9
20260510084903 52 253 1.0 1.0 0.00 0.00 0.00 9
20260510083053 52 209 1.0 3.0 0.00 0.00 0.00 9
20260510081317 52 245 1.0 2.0 0.00 0.00 0.00 9
20260510075427 52 214 1.0 2.0 0.00 0.00 0.00 9
20260510073653 51 111 2.0 3.0 0.00 0.00 0.00 9
20260510071933 51 217 3.0 8.0 0.03 0.00 0.00 9
20260510070158 51 183 3.0 4.0 0.05 0.00 0.00 9
20260510064433 51 170 1.0 7.0 0.05 0.00 0.00 9
20260510062613 51 250 2.0 1.0 0.04 0.00 0.00 9
20260510060846 52 130 2.0 2.0 0.00 0.00 0.00 8
20260510055058 53 187 1.0 3.0 0.00 0.00 0.00 7
20260510053106 52 233 2.0 1.0 0.00 0.00 0.00 8
20260510051228 51 257 1.0 1.0 0.00 0.00 0.00 7
20260510045528 51 226 1.0 4.0 0.00 0.00 0.00 7
20260510043928 51 95 1.0 2.0 0.00 0.00 0.00 7
20260510042058 51 180 2.0 4.0 0.00 0.00 0.00 7
20260510040303 51 273 1.0 2.0 0.00 0.00 0.00 7
20260510034313 51 239 2.0 3.0 0.00 0.00 0.00 7
20260510032703 52 260 1.0 4.0 0.00 0.00 0.00 7
20260510031043 52 141 2.0 4.0 0.00 0.00 0.00 7
20260510025058 53 262 0.0 0.0 0.00 0.00 0.00 7
20260510023313 53 91 1.0 2.0 0.00 0.00 0.00 7
20260510021437 53 199 2.0 3.0 0.00 0.00 0.00 7
20260510021403 53 199 2.0 3.0 0.00 0.00 0.00 7
20260510015748 54 85 1.0 2.0 0.00 0.00 0.00 7
20260510013953 54 240 3.0 5.0 0.00 0.00 0.00 6
20260510012317 55 99 3.0 4.0 0.00 0.00 0.00 6
20260510010613 55 256 1.0 2.0 0.00 0.00 0.00 6
20260510004923 55 242 1.0 1.0 0.00 0.00 0.00 6
20260510002958 56 248 2.0 4.0 0.00 0.00 0.00 6
20260510001431 57 250 4.0 6.0 0.00 0.00 0.00 6
20260510001343 57 250 4.0 6.0 0.00 0.00 0.00 6
20260509235738 58 246 2.0 1.0 0.00 0.00 0.00 6
20260509234033 59 135 6.0 7.0 0.00 0.00 0.00 5
20260509232424 60 253 1.0 2.0 0.00 0.00 0.00 5
20260509230513 61 153 1.0 4.0 0.00 0.00 0.00 5
20260509224558 62 131 1.0 3.0 0.00 0.00 0.00 4
20260509222738 64 263 1.0 1.0 0.00 0.00 0.00 4
20260509221053 65 123 2.0 5.0 0.00 0.00 0.00 3
20260509215103 66 245 1.0 2.0 0.00 0.00 0.00 3
20260509213143 66 110 1.0 0.0 0.00 0.00 0.00 3
20260509211253 67 244 2.0 5.0 0.00 0.00 0.00 2
20260509205541 67 260 5.0 7.0 0.00 0.00 0.00 2
20260509203637 67 172 3.0 4.0 0.00 0.00 0.00 2
20260509201903 66 246 3.0 2.0 0.00 0.00 0.00 2
20260509195932 66 70 3.0 4.0 0.00 0.00 0.00 2
20260509194355 67 122 1.0 3.0 0.00 0.00 0.00 2
20260509194316 67 122 1.0 3.0 0.00 0.00 0.00 2
20260509192428 68 100 5.0 7.0 0.00 0.00 0.00 2
20260509190833 68 252 2.0 6.0 0.00 0.00 0.00 2
20260509185038 68 88 4.0 7.0 0.00 0.00 0.00 2
20260509183223 68 259 1.0 2.0 0.00 0.00 0.00 2
20260509181354 69 0 0.0 0.0 0.00 0.00 0.00 2
20260509175643 67 139 3.0 4.0 0.00 0.00 0.00 3
20260509173718 69 114 0.0 1.0 0.00 0.00 0.00 3
20260509172018 68 162 0.0 1.0 0.00 0.00 0.00 3
20260509170032 67 187 2.0 4.0 0.00 0.00 0.00 3
20260509164203 67 222 3.0 5.0 0.00 0.00 0.00 2